Location: Unspecified
(0.0000°N, 0.0000°E)
Time: 09:56:52
(UTC+00:00)

HTV-X1 - Pass Details

Date: 11 April 2026
Orbit: 463 x 473 km, 51.6° (Epoch: 10 April)

Event Time Altitude Azimuth Distance (km) Brightness Sun altitude
Exits shadow 04:31:15 19° 167° (SSE) 1,144 ? -22.2°
Maximum altitude 04:32:52 27° 126° (SE) 917 ? -21.8°
Drops below altitude 10° 04:36:00 10° 66° (ENE) 1,608 ? -21.1°
Sets 04:38:21 0° 54° (NE) 2,482 ? -20.5°
